01-09-2023, 00:00:03,    154,    0.0,   13.0,   0.00,   0.00, 1006.3,    0.2, -999.0
01-09-2023, 00:00:14,    155,    0.0,   13.0,   0.00,   0.00, 1006.3,    0.2, -999.0
01-09-2023, 00:00:24,    173,    1.1,   13.0,   0.00,   0.00, 1006.3,    0.1, -999.0
01-09-2023, 00:00:33,    168,    1.3,   13.0,   0.00,   0.00, 1006.4,    0.2, -999.0
01-09-2023, 00:00:43,    168,    0.0,   12.9,   0.00,   0.00, 1006.3,    0.3, -999.0
01-09-2023, 00:00:54,    168,    0.4,   12.9,   0.00,   0.00, 1006.3,    0.2, -999.0
01-09-2023, 00:01:03,    168,    1.4,   13.0,   0.00,   0.00, 1006.4,    0.2, -999.0
01-09-2023, 00:01:13,    168,    0.2,   13.0,   0.00,   0.01, 1006.3,    0.1, -999.0
01-09-2023, 00:01:23,    169,    0.4,   12.9,   0.00,   0.00, 1006.3,    0.0, -999.0
01-09-2023, 00:01:34,    168,    1.0,   12.9,   0.00,   0.00, 1006.4,    0.1, -999.0
01-09-2023, 00:01:43,    168,    0.2,   12.9,   0.00,   0.00, 1006.3,    0.2, -999.0
01-09-2023, 00:01:53,    168,    0.0,   12.9,   0.00,   0.00, 1006.3,    0.2, -999.0
01-09-2023, 00:02:03,    168,    0.0,   12.9,   0.00,   0.00, 1006.3,    0.1, -999.0
01-09-2023, 00:02:13,    168,    0.0,   12.8,   0.00,   0.00, 1006.3,    0.1, -999.0
01-09-2023, 00:02:23,    169,    0.0,   12.9,   0.00,   0.00, 1006.3,    0.4, -999.0
01-09-2023, 00:02:33,    168,    0.0,   12.9,   0.00,   0.00, 1006.2,    0.2, -999.0
01-09-2023, 00:02:43,    168,    0.9,   12.9,   0.00,   0.01, 1006.3,    0.3, -999.0
01-09-2023, 00:02:53,    168,    0.4,   13.0,   0.00,   0.00, 1006.3,    0.3, -999.0
01-09-2023, 00:03:03,    167,    1.7,   13.0,   0.00,   0.00, 1006.4,    0.1, -999.0
01-09-2023, 00:03:13,    167,    0.5,   12.8,   0.00,   0.00, 1006.3,    0.2, -999.0
01-09-2023, 00:03:23,    166,    0.1,   12.9,   0.00,   0.00, 1006.3,    0.1, -999.0
01-09-2023, 00:03:33,    166,    0.1,   13.0,   0.00,   0.00, 1006.3,    0.2, -999.0
01-09-2023, 00:03:43,    166,    0.0,   12.9,   0.00,   0.00, 1006.3,    0.2, -999.0
01-09-2023, 00:03:53,    166,    0.0,   12.8,   0.00,   0.00, 1006.3,    0.1, -999.0
01-09-2023, 00:04:03,    166,    0.0,   12.9,   0.00,   0.00, 1006.3,    0.2, -999.0
01-09-2023, 00:04:13,    167,    0.0,   13.0,   0.00,   0.00, 1006.3,    0.3, -999.0
01-09-2023, 00:04:23,    166,    1.5,   13.0,   0.00,   0.01, 1006.4,    0.0, -999.0
01-09-2023, 00:04:33,    162,    0.6,   13.0,   0.00,   0.00, 1006.4,    0.2, -999.0
01-09-2023, 00:04:43,    162,    0.9,   13.0,   0.00,   0.00, 1006.4,    0.0, -999.0
01-09-2023, 00:04:53,    155,    0.6,   13.0,   0.00,   0.00, 1006.4,    0.2, -999.0
01-09-2023, 00:05:03,    162,    1.9,   13.0,   0.00,   0.00, 1006.4,    0.3, -999.0
01-09-2023, 00:05:13,    161,    0.5,   12.8,   0.00,   0.00, 1006.3,    0.4, -999.0
01-09-2023, 00:05:23,    161,    0.0,   12.9,   0.00,   0.00, 1006.3,    0.2, -999.0
01-09-2023, 00:05:33,    161,    0.1,   12.9,   0.00,   0.00, 1006.3,    0.3, -999.0
01-09-2023, 00:05:43,    161,    0.0,   12.9,   0.00,   0.00, 1006.3,    0.5, -999.0
01-09-2023, 00:05:53,    161,    0.2,   12.9,   0.00,   0.01, 1006.3,    0.2, -999.0
01-09-2023, 00:06:03,    163,    0.6,   12.9,   0.00,   0.00, 1006.4,    0.2, -999.0
01-09-2023, 00:06:13,    162,    0.3,   12.9,   0.00,   0.00, 1006.3,    0.1, -999.0
01-09-2023, 00:06:23,    162,    0.0,   12.9,   0.00,   0.00, 1006.3,    0.3, -999.0
01-09-2023, 00:06:32,    162,    0.0,   12.9,   0.00,   0.00, 1006.3,    0.1, -999.0
01-09-2023, 00:06:43,    130,    0.9,   12.9,   0.00,   0.00, 1006.4,    0.2, -999.0
01-09-2023, 00:06:53,    174,    1.4,   13.0,   0.00,   0.00, 1006.4,    0.3, -999.0
01-09-2023, 00:07:02,    176,    0.4,   13.0,   0.00,   0.00, 1006.4,    0.1, -999.0
01-09-2023, 00:07:12,    178,    0.2,   12.9,   0.00,   0.00, 1006.3,    0.2, -999.0
01-09-2023, 00:07:23,    178,    0.0,   12.8,   0.00,   0.00, 1006.3,    0.2, -999.0
01-09-2023, 00:07:33,    174,    0.4,   12.9,   0.00,   0.01, 1006.3,    0.2, -999.0
01-09-2023, 00:07:42,    175,    0.5,   13.0,   0.00,   0.00, 1006.4,    0.2, -999.0
01-09-2023, 00:07:53,    178,    0.4,   12.9,   0.00,   0.00, 1006.4,    0.3, -999.0
01-09-2023, 00:08:03,    181,    0.0,   12.9,   0.00,   0.00, 1006.4,    0.3, -999.0
01-09-2023, 00:08:12,    181,    0.0,   12.8,   0.00,   0.00, 1006.3,    0.1, -999.0
01-09-2023, 00:08:22,    181,    0.0,   12.8,   0.00,   0.00, 1006.3,    0.2, -999.0
01-09-2023, 00:08:33,    180,    0.0,   12.9,   0.00,   0.00, 1006.3,    0.2, -999.0
01-09-2023, 00:08:42,    180,    0.0,   12.8,   0.00,   0.00, 1006.3,    0.2, -999.0
01-09-2023, 00:08:52,    179,    0.0,   12.8,   0.00,   0.00, 1006.3,    0.1, -999.0
01-09-2023, 00:09:02,    181,    0.0,   12.8,   0.00,   0.00, 1006.3,    0.2, -999.0
01-09-2023, 00:09:13,    180,    0.0,   12.8,   0.00,   0.01, 1006.3,    0.1, -999.0
01-09-2023, 00:09:22,    180,    0.0,   12.8,   0.00,   0.00, 1006.3,    0.1, -999.0
01-09-2023, 00:09:32,    180,    0.0,   12.7,   0.00,   0.00, 1006.3,    0.1, -999.0
01-09-2023, 00:09:42,    180,    0.0,   12.7,   0.00,   0.00, 1006.3,    0.1, -999.0
01-09-2023, 00:09:52,    180,    0.0,   12.9,   0.00,   0.00, 1006.3,    0.1, -999.0
01-09-2023, 00:10:02,    180,    0.0,   12.9,   0.00,   0.00, 1006.3,    0.2, -999.0
01-09-2023, 00:10:12,    150,    0.8,   12.9,   0.00,   0.00, 1006.4,    0.1, -999.0
01-09-2023, 00:10:22,    153,    2.2,   12.9,   0.00,   0.00, 1006.5,    0.0, -999.0
01-09-2023, 00:10:32,    162,    1.5,   12.9,   0.00,   0.00, 1006.4,    0.2, -999.0
01-09-2023, 00:10:42,    157,    1.4,   12.9,   0.00,   0.00, 1006.5,    0.2, -999.0
01-09-2023, 00:10:52,    156,    0.9,   12.9,   0.00,   0.00, 1006.4,    0.2, -999.0
01-09-2023, 00:11:02,    156,    0.2,   12.8,   0.00,   0.00, 1006.4,    0.3, -999.0
01-09-2023, 00:11:12,    156,    0.4,   12.8,   0.00,   0.00, 1006.4,    0.3, -999.0
01-09-2023, 00:11:22,    156,    0.0,   12.8,   0.00,   0.00, 1006.3,    0.3, -999.0
01-09-2023, 00:11:32,    156,    0.3,   12.8,   0.00,   0.00, 1006.4,    0.3, -999.0
01-09-2023, 00:11:42,    156,    0.1,   12.9,   0.00,   0.00, 1006.4,    0.1, -999.0
01-09-2023, 00:11:52,    156,    0.8,   12.9,   0.00,   0.00, 1006.4,    0.2, -999.0
01-09-2023, 00:12:02,    156,    0.7,   12.9,   0.00,   0.00, 1006.4,    0.1, -999.0
01-09-2023, 00:12:12,    156,    0.5,   12.9,   0.00,   0.00, 1006.5,    0.3, -999.0
01-09-2023, 00:12:23,    156,    0.1,   12.9,   0.00,   0.00, 1006.4,    0.3, -999.0
01-09-2023, 00:12:32,    156,    0.0,   12.9,   0.00,   0.00, 1006.3,    0.3, -999.0
01-09-2023, 00:12:42,    156,    0.0,   12.9,   0.00,   0.00, 1006.3,    0.2, -999.0
01-09-2023, 00:12:52,    156,    0.2,   12.9,   0.00,   0.00, 1006.4,    0.1, -999.0
01-09-2023, 00:13:02,    156,    0.0,   12.9,   0.00,   0.00, 1006.3,    0.1, -999.0
01-09-2023, 00:13:12,    155,    0.0,   12.9,   0.00,   0.00, 1006.3,    0.2, -999.0
01-09-2023, 00:13:22,    156,    0.0,   12.9,   0.00,   0.00, 1006.4,    0.1, -999.0
01-09-2023, 00:13:32,    156,    0.6,   13.0,   0.00,   0.00, 1006.4,    0.6, -999.0
01-09-2023, 00:13:42,    156,    0.0,   12.9,   0.00,   0.00, 1006.3,    0.2, -999.0
01-09-2023, 00:13:52,    156,    0.0,   12.9,   0.00,   0.00, 1006.3,    0.1, -999.0
01-09-2023, 00:14:02,    156,    0.0,   12.9,   0.00,   0.00, 1006.3,    0.4, -999.0
01-09-2023, 00:14:11,    156,    0.4,   12.9,   0.00,   0.00, 1006.4,    0.3, -999.0
01-09-2023, 00:14:22,    146,    1.1,   13.0,   0.00,   0.00, 1006.4,    0.2, -999.0
01-09-2023, 00:14:32,    151,    0.2,   12.9,   0.00,   0.00, 1006.4,    0.4, -999.0
01-09-2023, 00:14:41,    152,    0.0,   12.8,   0.00,   0.00, 1006.3,    0.1, -999.0
01-09-2023, 00:14:51,    150,    0.0,   12.9,   0.00,   0.00, 1006.3,    0.1, -999.0
01-09-2023, 00:15:02,    151,    0.0,   12.9,   0.00,   0.00, 1006.3,    0.1, -999.0
01-09-2023, 00:15:12,    151,    0.2,   12.9,   0.00,   0.00, 1006.4,    0.2, -999.0
01-09-2023, 00:15:21,    150,    0.1,   12.9,   0.00,   0.00, 1006.4,    0.2, -999.0
01-09-2023, 00:15:31,    150,    0.0,   12.8,   0.00,   0.01, 1006.3,    0.0, -999.0
01-09-2023, 00:15:42,    150,    0.0,   12.9,   0.00,   0.00, 1006.3,    0.2, -999.0
01-09-2023, 00:15:51,    151,    0.0,   12.8,   0.00,   0.00, 1006.3,    0.2, -999.0
01-09-2023, 00:16:01,    151,    0.0,   12.9,   0.00,   0.00, 1006.3,    0.2, -999.0
01-09-2023, 00:16:11,    150,    0.0,   12.9,   0.00,   0.00, 1006.3,    0.2, -999.0
01-09-2023, 00:16:21,    151,    0.0,   12.9,   0.00,   0.00, 1006.3,    0.2, -999.0
01-09-2023, 00:16:31,    150,    0.0,   12.7,   0.00,   0.00, 1006.3,    0.2, -999.0
01-09-2023, 00:16:41,    150,    0.0,   12.8,   0.00,   0.00, 1006.3,    0.1, -999.0
01-09-2023, 00:16:51,    157,    0.0,   12.9,   0.00,   0.00, 1006.3,    0.0, -999.0
01-09-2023, 00:17:01,    156,    0.4,   12.9,   0.00,   0.00, 1006.4,    0.2, -999.0
01-09-2023, 00:17:11,    156,    0.0,   12.9,   0.00,   0.00, 1006.3,    0.3, -999.0
01-09-2023, 00:17:21,    156,    0.0,   12.9,   0.00,   0.00, 1006.3,    0.1, -999.0
01-09-2023, 00:17:31,    156,    0.0,   12.8,   0.00,   0.00, 1006.3,    0.1, -999.0
01-09-2023, 00:17:41,    156,    0.0,   12.8,   0.00,   0.00, 1006.3,    0.2, -999.0
01-09-2023, 00:17:51,    156,    0.0,   12.9,   0.00,   0.00, 1006.3,    0.2, -999.0
01-09-2023, 00:18:01,    156,    0.0,   12.9,   0.00,   0.00, 1006.3,    0.2, -999.0
01-09-2023, 00:18:11,    156,    0.0,   12.9,   0.00,   0.00, 1006.3,    0.2, -999.0
01-09-2023, 00:18:21,    156,    0.0,   12.9,   0.00,   0.00, 1006.3,    0.1, -999.0
01-09-2023, 00:18:31,    156,    0.0,   12.9,   0.00,   0.00, 1006.3,    0.2, -999.0
01-09-2023, 00:18:41,    156,    0.0,   12.9,   0.00,   0.00, 1006.3,    0.2, -999.0
01-09-2023, 00:18:51,    156,    0.0,   12.9,   0.00,   0.00, 1006.3,    0.2, -999.0
01-09-2023, 00:19:01,    156,    0.0,   12.9,   0.00,   0.00, 1006.3,    0.2, -999.0
01-09-2023, 00:19:11,    156,    0.0,   12.9,   0.00,   0.00, 1006.3,    0.2, -999.0
01-09-2023, 00:19:21,    156,    0.0,   12.9,   0.00,   0.00, 1006.3,    0.2, -999.0
01-09-2023, 00:19:31,    156,    0.0,   12.9,   0.00,   0.00, 1006.3,    0.3, -999.0
01-09-2023, 00:19:41,    156,    0.0,   12.9,   0.00,   0.00, 1006.3,    0.3, -999.0
01-09-2023, 00:19:51,    156,    0.0,   12.9,   0.00,   0.00, 1006.3,    0.1, -999.0
01-09-2023, 00:20:01,    156,    0.0,   12.9,   0.00,   0.00, 1006.3,    0.3, -999.0
01-09-2023, 00:20:11,    156,    0.0,   12.9,   0.00,   0.00, 1006.3,    0.3, -999.0
01-09-2023, 00:20:21,    156,    0.0,   12.8,   0.00,   0.00, 1006.3,    0.1, -999.0
01-09-2023, 00:20:31,    156,    0.0,   12.9,   0.00,   0.00, 1006.3,    0.2, -999.0
01-09-2023, 00:20:41,    156,    0.0,   12.9,   0.00,   0.00, 1006.3,    0.2, -999.0
01-09-2023, 00:20:51,    156,    0.0,   12.9,   0.00,   0.00, 1006.3,    0.1, -999.0
01-09-2023, 00:21:01,    156,    0.0,   12.9,   0.00,   0.00, 1006.3,    0.5, -999.0
01-09-2023, 00:21:11,    156,    0.0,   12.9,   0.00,   0.00, 1006.3,    0.3, -999.0
01-09-2023, 00:21:21,    161,    0.0,   12.9,   0.00,   0.00, 1006.4,    0.2, -999.0
01-09-2023, 00:21:31,    162,    0.0,   13.0,   0.00,   0.00, 1006.3,    0.2, -999.0
01-09-2023, 00:21:41,    161,    0.0,   12.9,   0.00,   0.00, 1006.3,    0.0, -999.0
01-09-2023, 00:21:50,    161,    0.0,   12.8,   0.00,   0.00, 1006.3,    0.1, -999.0
01-09-2023, 00:22:01,    161,    0.0,   12.9,   0.00,   0.00, 1006.3,    0.0, -999.0
01-09-2023, 00:22:11,    161,    0.0,   12.9,   0.00,   0.00, 1006.3,    0.0, -999.0
01-09-2023, 00:22:20,    161,    0.0,   12.9,   0.00,   0.00, 1006.3,    0.2, -999.0
01-09-2023, 00:22:30,    161,    0.0,   12.9,   0.00,   0.00, 1006.3,    0.2, -999.0
01-09-2023, 00:22:41,    161,    0.0,   13.0,   0.00,   0.00, 1006.3,    0.1, -999.0
01-09-2023, 00:22:50,    161,    0.0,   13.0,   0.00,   0.00, 1006.3,    0.1, -999.0
01-09-2023, 00:23:00,    160,    0.0,   13.0,   0.00,   0.00, 1006.3,    0.2, -999.0
01-09-2023, 00:23:10,    161,    0.0,   13.0,   0.00,   0.00, 1006.3,    0.3, -999.0
01-09-2023, 00:23:21,    166,    0.9,   13.0,   0.00,   0.00, 1006.4,    0.1, -999.0
01-09-2023, 00:23:30,    166,    0.8,   13.0,   0.00,   0.00, 1006.5,    0.2, -999.0
01-09-2023, 00:23:40,    166,    0.3,   12.9,   0.00,   0.00, 1006.4,    0.1, -999.0
01-09-2023, 00:23:50,    166,    0.1,   12.9,   0.00,   0.00, 1006.4,    0.3, -999.0
01-09-2023, 00:24:00,    166,    0.0,   12.9,   0.00,   0.00, 1006.3,    0.1, -999.0
01-09-2023, 00:24:10,    166,    0.0,   12.8,   0.00,   0.00, 1006.3,    0.4, -999.0
01-09-2023, 00:24:20,    166,    0.0,   12.9,   0.00,   0.00, 1006.3,    0.1, -999.0
01-09-2023, 00:24:30,    166,    0.0,   12.9,   0.00,   0.00, 1006.3,    0.2, -999.0
01-09-2023, 00:24:40,    166,    0.0,   12.9,   0.00,   0.00, 1006.3,    0.3, -999.0
01-09-2023, 00:24:50,    166,    0.0,   13.0,   0.00,   0.00, 1006.3,    0.2, -999.0
01-09-2023, 00:25:00,    166,    0.0,   12.9,   0.00,   0.00, 1006.3,    0.1, -999.0
01-09-2023, 00:25:10,    166,    0.0,   12.9,   0.00,   0.00, 1006.3,    0.1, -999.0
01-09-2023, 00:25:20,    166,    0.0,   12.9,   0.00,   0.00, 1006.3,    0.3, -999.0
01-09-2023, 00:25:30,    166,    0.0,   12.9,   0.00,   0.00, 1006.3,    0.1, -999.0
01-09-2023, 00:25:40,    166,    0.0,   12.8,   0.00,   0.00, 1006.3,    0.4, -999.0
01-09-2023, 00:25:50,    166,    0.0,   12.9,   0.00,   0.00, 1006.3,    0.2, -999.0
01-09-2023, 00:26:00,    166,    0.0,   13.0,   0.00,   0.00, 1006.3,    0.1, -999.0
01-09-2023, 00:26:10,    166,    0.0,   12.9,   0.00,   0.00, 1006.3,    0.4, -999.0
01-09-2023, 00:26:20,    166,    0.0,   12.8,   0.00,   0.00, 1006.3,    0.1, -999.0
01-09-2023, 00:26:30,    166,    0.0,   13.0,   0.00,   0.00, 1006.3,    0.0, -999.0
01-09-2023, 00:26:40,    166,    0.0,   13.0,   0.00,   0.00, 1006.3,    0.4, -999.0
01-09-2023, 00:26:50,    166,    0.0,   13.0,   0.00,   0.00, 1006.3,    0.0, -999.0
01-09-2023, 00:27:00,    163,    0.0,   13.0,   0.00,   0.00, 1006.3,    0.0, -999.0
01-09-2023, 00:27:10,    166,    0.0,   12.9,   0.00,   0.00, 1006.3,    0.1, -999.0
01-09-2023, 00:27:20,    164,    0.0,   12.9,   0.00,   0.00, 1006.3,    0.0, -999.0
01-09-2023, 00:27:30,    166,    0.1,   12.9,   0.00,   0.00, 1006.4,    0.0, -999.0
01-09-2023, 00:27:40,    166,    0.3,   13.0,   0.00,   0.00, 1006.4,    0.2, -999.0
01-09-2023, 00:27:50,    166,    0.3,   12.8,   0.00,   0.00, 1006.4,    0.2, -999.0
01-09-2023, 00:28:00,    166,    0.1,   12.9,   0.00,   0.00, 1006.4,    0.2, -999.0
01-09-2023, 00:28:10,    166,    0.0,   13.0,   0.00,   0.00, 1006.3,    0.1, -999.0
01-09-2023, 00:28:19,    166,    0.0,   12.9,   0.00,   0.01, 1006.3,    0.2, -999.0
01-09-2023, 00:28:30,    166,    0.0,   12.9,   0.00,   0.00, 1006.3,    0.3, -999.0
01-09-2023, 00:28:40,    166,    0.0,   12.9,   0.00,   0.00, 1006.3,    0.1, -999.0
01-09-2023, 00:28:50,    165,    0.0,   12.9,   0.00,   0.00, 1006.3,    0.3, -999.0
01-09-2023, 00:28:59,    166,    0.0,   13.0,   0.00,   0.00, 1006.3,    0.0, -999.0
01-09-2023, 00:29:10,    166,    0.0,   12.9,   0.00,   0.00, 1006.3,    0.6, -999.0
01-09-2023, 00:29:20,    166,    0.0,   12.9,   0.00,   0.00, 1006.3,    0.0, -999.0
01-09-2023, 00:29:29,    166,    0.0,   13.0,   0.00,   0.00, 1006.3,    0.1, -999.0
01-09-2023, 00:29:39,    166,    0.0,   12.9,   0.00,   0.00, 1006.3,    0.2, -999.0
01-09-2023, 00:29:50,    166,    0.0,   12.9,   0.00,   0.00, 1006.4,    0.1, -999.0
01-09-2023, 00:29:59,    166,    0.0,   12.9,   0.00,   0.00, 1006.3,    0.2, -999.0
01-09-2023, 00:30:09,    166,    0.0,   12.9,   0.00,   0.00, 1006.3,    0.1, -999.0
01-09-2023, 00:30:19,    166,    0.0,   12.9,   0.00,   0.00, 1006.3,    0.5, -999.0
01-09-2023, 00:30:29,    166,    0.0,   12.9,   0.00,   0.00, 1006.3,    0.1, -999.0
01-09-2023, 00:30:39,    166,    0.0,   13.0,   0.00,   0.00, 1006.3,    0.1, -999.0
01-09-2023, 00:30:49,    166,    0.0,   13.0,   0.00,   0.00, 1006.3,    0.1, -999.0
01-09-2023, 00:31:00,    166,    0.0,   12.9,   0.00,   0.00, 1006.3,    0.1, -999.0
01-09-2023, 00:31:09,    166,    0.0,   13.0,   0.00,   0.00, 1006.3,    0.1, -999.0
01-09-2023, 00:31:19,    166,    0.0,   12.9,   0.00,   0.00, 1006.3,    0.3, -999.0
01-09-2023, 00:31:29,    165,    0.0,   12.9,   0.00,   0.00, 1006.3,    0.1, -999.0
01-09-2023, 00:31:39,    166,    0.0,   12.9,   0.00,   0.00, 1006.3,    0.1, -999.0
01-09-2023, 00:31:49,    166,    0.0,   13.0,   0.00,   0.00, 1006.3,    0.3, -999.0
01-09-2023, 00:31:59,    166,    0.0,   12.9,   0.00,   0.00, 1006.3,    0.2, -999.0
01-09-2023, 00:32:09,    166,    0.0,   12.9,   0.00,   0.00, 1006.3,    0.2, -999.0
01-09-2023, 00:32:19,    166,    0.0,   12.9,   0.00,   0.00, 1006.3,    0.2, -999.0
01-09-2023, 00:32:29,    165,    0.0,   12.9,   0.00,   0.00, 1006.3,    0.2, -999.0
01-09-2023, 00:32:39,    166,    0.0,   12.9,   0.00,   0.00, 1006.3,    0.1, -999.0
01-09-2023, 00:32:49,    166,    0.0,   12.9,   0.00,   0.00, 1006.3,    0.1, -999.0
01-09-2023, 00:32:59,    166,    0.5,   13.0,   0.00,   0.00, 1006.4,    0.0, -999.0
01-09-2023, 00:33:09,    166,    0.4,   13.0,   0.00,   0.00, 1006.4,    0.2, -999.0
01-09-2023, 00:33:19,    166,    0.3,   13.0,   0.00,   0.00, 1006.4,    0.1, -999.0
01-09-2023, 00:33:29,    166,    1.2,   13.0,   0.00,   0.00, 1006.4,    0.2, -999.0
01-09-2023, 00:33:39,    166,    0.4,   13.0,   0.00,   0.00, 1006.4,    0.2, -999.0
01-09-2023, 00:33:49,    166,    0.5,   13.0,   0.00,   0.00, 1006.4,    0.2, -999.0
01-09-2023, 00:33:59,    165,    0.0,   12.9,   0.00,   0.00, 1006.3,    0.1, -999.0
01-09-2023, 00:34:09,    165,    0.0,   12.9,   0.00,   0.00, 1006.3,    0.1, -999.0
01-09-2023, 00:34:19,    166,    0.0,   12.8,   0.00,   0.00, 1006.3,    0.2, -999.0
01-09-2023, 00:34:29,    166,    0.0,   12.9,   0.00,   0.00, 1006.3,    0.1, -999.0
01-09-2023, 00:34:39,    165,    0.0,   12.9,   0.00,   0.00, 1006.3,    0.1, -999.0
01-09-2023, 00:34:49,    165,    0.0,   12.9,   0.00,   0.00, 1006.3,    0.1, -999.0
01-09-2023, 00:34:59,    166,    0.0,   13.0,   0.00,   0.00, 1006.3,    0.1, -999.0
01-09-2023, 00:35:09,    165,    0.0,   12.9,   0.00,   0.00, 1006.3,    0.0, -999.0
01-09-2023, 00:35:19,    166,    0.0,   13.0,   0.00,   0.00, 1006.2,    0.0, -999.0
01-09-2023, 00:35:29,    166,    0.0,   13.0,   0.00,   0.00, 1006.2,    0.1, -999.0
01-09-2023, 00:35:39,    166,    0.0,   13.0,   0.00,   0.00, 1006.2,    0.2, -999.0
01-09-2023, 00:35:49,    165,    0.0,   12.9,   0.00,   0.00, 1006.2,    0.2, -999.0
01-09-2023, 00:35:58,    165,    0.0,   13.0,   0.00,   0.00, 1006.2,    0.1, -999.0
01-09-2023, 00:36:09,    165,    0.0,   13.0,   0.00,   0.00, 1006.2,    0.1, -999.0
01-09-2023, 00:36:19,    166,    0.0,   13.0,   0.00,   0.00, 1006.2,    0.1, -999.0
01-09-2023, 00:36:28,    165,    0.0,   13.0,   0.00,   0.00, 1006.2,    0.1, -999.0
01-09-2023, 00:36:38,    165,    0.0,   13.0,   0.00,   0.00, 1006.3,    0.1, -999.0
01-09-2023, 00:36:49,    166,    0.0,   13.0,   0.00,   0.00, 1006.2,    0.3, -999.0
01-09-2023, 00:36:59,    165,    0.0,   13.0,   0.00,   0.00, 1006.2,    0.1, -999.0
01-09-2023, 00:37:08,    165,    0.0,   13.0,   0.00,   0.00, 1006.2,    0.1, -999.0
01-09-2023, 00:37:18,    165,    0.0,   13.0,   0.00,   0.00, 1006.3,    0.2, -999.0
01-09-2023, 00:37:29,    165,    0.0,   13.0,   0.00,   0.00, 1006.3,    0.2, -999.0
01-09-2023, 00:37:38,    166,    0.6,   13.0,   0.00,   0.00, 1006.3,    0.3, -999.0
01-09-2023, 00:37:48,    165,    0.5,   13.1,   0.00,   0.00, 1006.3,    0.2, -999.0
01-09-2023, 00:37:58,    165,    0.0,   13.0,   0.00,   0.00, 1006.2,    0.1, -999.0
01-09-2023, 00:38:09,    165,    0.0,   12.9,   0.00,   0.00, 1006.2,    0.2, -999.0
01-09-2023, 00:38:18,    166,    0.1,   13.0,   0.00,   0.00, 1006.3,    0.1, -999.0
01-09-2023, 00:38:28,    165,    0.0,   13.0,   0.00,   0.00, 1006.3,    0.2, -999.0
01-09-2023, 00:38:38,    165,    0.0,   12.9,   0.00,   0.00, 1006.2,    0.1, -999.0
01-09-2023, 00:38:48,    166,    0.0,   12.9,   0.00,   0.00, 1006.2,    0.1, -999.0
01-09-2023, 00:38:58,    166,    0.0,   13.0,   0.00,   0.00, 1006.3,    0.1, -999.0
01-09-2023, 00:39:08,    165,    0.0,   13.0,   0.00,   0.00, 1006.3,    0.1, -999.0
01-09-2023, 00:39:18,    166,    0.0,   13.0,   0.00,   0.00, 1006.3,    0.1, -999.0
01-09-2023, 00:39:28,    166,    0.0,   13.0,   0.00,   0.00, 1006.2,    0.0, -999.0
01-09-2023, 00:39:38,    165,    0.0,   12.9,   0.00,   0.00, 1006.3,    0.2, -999.0
01-09-2023, 00:39:48,    166,    0.0,   13.0,   0.00,   0.00, 1006.2,    0.0, -999.0
01-09-2023, 00:39:58,    165,    0.0,   12.9,   0.00,   0.00, 1006.2,    0.1, -999.0
01-09-2023, 00:40:08,    165,    0.0,   12.9,   0.00,   0.00, 1006.3,    0.1, -999.0
01-09-2023, 00:40:18,    165,    0.0,   13.0,   0.00,   0.00, 1006.3,    0.2, -999.0
01-09-2023, 00:40:28,    165,    0.0,   13.1,   0.00,   0.00, 1006.2,    0.0, -999.0
01-09-2023, 00:40:38,    165,    0.0,   12.9,   0.00,   0.00, 1006.2,    0.1, -999.0
01-09-2023, 00:40:48,    166,    0.0,   13.0,   0.00,   0.00, 1006.2,    0.2, -999.0
01-09-2023, 00:40:58,    165,    0.0,   13.0,   0.00,   0.00, 1006.2,    0.3, -999.0
01-09-2023, 00:41:08,    165,    0.0,   13.0,   0.00,   0.00, 1006.2,    0.0, -999.0
01-09-2023, 00:41:18,    165,    0.0,   13.0,   0.00,   0.00, 1006.2,    0.1, -999.0
01-09-2023, 00:41:28,    165,    0.0,   13.0,   0.00,   0.00, 1006.3,    0.2, -999.0
01-09-2023, 00:41:38,    165,    0.0,   13.0,   0.00,   0.00, 1006.2,    0.1, -999.0
01-09-2023, 00:41:48,    165,    0.0,   13.0,   0.00,   0.00, 1006.2,    0.2, -999.0
01-09-2023, 00:41:58,    166,    0.0,   13.0,   0.00,   0.00, 1006.2,    0.1, -999.0
01-09-2023, 00:42:08,    165,    0.0,   13.0,   0.00,   0.00, 1006.2,    0.2, -999.0
01-09-2023, 00:42:18,    166,    0.0,   13.1,   0.00,   0.00, 1006.2,    0.2, -999.0
01-09-2023, 00:42:28,    166,    0.0,   13.1,   0.00,   0.00, 1006.2,    0.2, -999.0
01-09-2023, 00:42:38,    165,    0.0,   13.1,   0.00,   0.00, 1006.2,    0.2, -999.0
01-09-2023, 00:42:48,    166,    0.0,   13.1,   0.00,   0.00, 1006.2,    0.2, -999.0
01-09-2023, 00:42:58,    165,    0.0,   13.1,   0.00,   0.00, 1006.2,    0.2, -999.0
01-09-2023, 00:43:07,    165,    0.0,   13.2,   0.00,   0.00, 1006.2,    0.1, -999.0
01-09-2023, 00:43:18,    166,    0.0,   13.1,   0.00,   0.00, 1006.2,    0.2, -999.0
01-09-2023, 00:43:28,    165,    0.0,   13.1,   0.00,   0.00, 1006.2,    0.1, -999.0
01-09-2023, 00:43:37,    166,    0.0,   13.0,   0.00,   0.00, 1006.2,    0.1, -999.0
01-09-2023, 00:43:48,    165,    0.0,   13.1,   0.00,   0.00, 1006.2,    0.0, -999.0
01-09-2023, 00:43:58,    165,    0.0,   13.0,   0.00,   0.00, 1006.2,    0.1, -999.0
01-09-2023, 00:44:07,    165,    0.0,   13.1,   0.00,   0.00, 1006.2,    0.1, -999.0
01-09-2023, 00:44:17,    165,    0.0,   13.1,   0.00,   0.00, 1006.2,    0.1, -999.0
01-09-2023, 00:44:28,    165,    0.0,   13.0,   0.00,   0.00, 1006.2,    0.2, -999.0
01-09-2023, 00:44:38,    166,    0.0,   13.0,   0.00,   0.00, 1006.2,    0.1, -999.0
01-09-2023, 00:44:47,    165,    0.0,   13.1,   0.00,   0.00, 1006.1,    0.2, -999.0
01-09-2023, 00:44:57,    165,    0.0,   13.1,   0.00,   0.00, 1006.1,    0.1, -999.0
01-09-2023, 00:45:07,    165,    0.0,   13.1,   0.00,   0.00, 1006.1,    0.2, -999.0
01-09-2023, 00:45:17,    165,    0.0,   13.1,   0.00,   0.00, 1006.1,    0.1, -999.0
01-09-2023, 00:45:27,    165,    0.0,   13.1,   0.00,   0.00, 1006.1,    0.1, -999.0
01-09-2023, 00:45:37,    166,    0.0,   13.1,   0.00,   0.00, 1006.1,    0.1, -999.0
01-09-2023, 00:45:48,    166,    0.0,   13.0,   0.00,   0.00, 1006.2,    0.2, -999.0
01-09-2023, 00:45:57,    165,    0.0,   13.1,   0.00,   0.00, 1006.2,    0.0, -999.0
01-09-2023, 00:46:07,    166,    0.0,   13.0,   0.00,   0.00, 1006.2,    0.1, -999.0
01-09-2023, 00:46:17,    165,    0.0,   13.1,   0.00,   0.00, 1006.2,    0.0, -999.0
01-09-2023, 00:46:27,    166,    0.0,   13.0,   0.00,   0.00, 1006.2,    0.2, -999.0
01-09-2023, 00:46:37,    165,    0.0,   13.0,   0.00,   0.00, 1006.2,    0.1, -999.0
01-09-2023, 00:46:47,    166,    0.0,   13.0,   0.00,   0.00, 1006.2,    0.2, -999.0